User: anonymous   Login
Location: Bonny Doon Airfield
(37.0704°N, 122.1252°W)
Time: 14:46:04
(UTC-07:00)
Language:

BREEZE M DEB (TANK) - Orbit

View from above orbital plane
View from above orbital plane
View from above satellite
View from above satellite

Ground track
Ground track

The orbit data is extracted from the following two-line orbital elements,

1 33437U 08057B   15113.86114138  .00006570  00000-0  14826-2 0  9994
2 33437 049.5431 196.9056 5011612 225.6812 197.7952 05.57468940129938
Epoch (UTC): 23 April 2015 20:40:02
Eccentricity: 0.5011612
inclination: 49.5431°
perigee height: 324 km
apogee height: 13790 km
right ascension of ascending node: 196.9056°
argument of perigee: 225.6812°
revolutions per day: 5.57468940
mean anomaly at epoch: 197.7952°
orbit number at epoch: 12993

The dashed part of the orbit path shows where the satellite is in the earth's shadow,  

DLR